, NV

(GMT )
Eureka Airport

Weather History for K05U - February, 2013

Change the Weather History Date:

Sunday, February 10, 2013

  Actual Average Record
Temperature  
Mean Temperature 66 °F -  
Max Temperature 127 °F - - ()
Min Temperature 1 °F - - ()
Cooling Degree Days 1    
Growing Degree Days 16 (Base 50)    
Moisture  
Dew Point 17 °F    
Average Humidity 76    
Maximum Humidity 100    
Minimum Humidity 55    
Precipitation  
Precipitation 0.00 in - - ()
Sea Level Pressure  
Sea Level Pressure 29.97 in    
Wind  
Wind Speed 6 mph (North)    
Max Wind Speed 16 mph    
Max Gust Speed 21 mph    
Visibility 9 miles    
Events      
Averages and records for this station are not official NWS values.
T = Trace of Precipitation, MM = Missing Value Source: NWS Daily Summary

Daily Weather History Graph

Daily Weather History Graph

Search for Another Location

Airport or City:

Trip Planner

Search our weather history database for the weather conditions in past years. The results will help you decide how hot, cold, wet, or windy it might be!

Date:

Astronomy

Feb. 10, 2013 Rise Set
Actual Time 6:41 AM PST 5:15 PM PST
Civil Twilight 6:14 AM PST 5:42 PM PST
Nautical Twilight 5:42 AM PST 6:14 PM PST
Astronomical Twilight 5:11 AM PST 6:46 PM PST
Moon 6:34 AM PST (2/10) 6:10 PM PST (2/10)
Length of Visible Light 11h 28m
Length of Day
10h 33m
New Moon, 0% of the Moon is Illuminated
Feb 10
New Moon
Feb 17
First Quarter
Feb 25
Full
Mar 4
Last Quarter
Mar 11
New

Hourly Weather History & Observations

Time (PST) Temp. Windchill Dew Point Humidity Pressure Visibility Wind Dir Wind Speed Gust Speed Precip Events Conditions
12:15 AM 23.0 °F - 15.8 °F 74% 29.94 in 10.0 mi Calm Calm - N/A   Overcast
12:35 AM 23.0 °F 17.0 °F 17.6 °F 80% 29.94 in 7.0 mi NW 4.6 mph - N/A   Overcast
12:55 AM 23.0 °F 17.0 °F 17.6 °F 80% 29.93 in 9.0 mi South 4.6 mph - N/A   Overcast
1:15 AM 24.8 °F - 17.6 °F 74% 29.93 in 9.0 mi Calm Calm - N/A   Overcast
1:35 AM 24.8 °F 17.9 °F 17.6 °F 74% 29.93 in 5.0 mi WNW 5.8 mph - N/A   Overcast
1:55 AM 24.8 °F 19.1 °F 17.6 °F 74% 29.93 in 5.0 mi East 4.6 mph - N/A   Overcast
2:15 AM 23.0 °F 17.0 °F 17.6 °F 80% 29.92 in 10.0 mi NE 4.6 mph - N/A   Overcast
2:35 AM - - - N/A% 29.91 in 10.0 mi Calm Calm - N/A   Overcast
2:55 AM 24.8 °F 17.9 °F 17.6 °F 74% 29.90 in 9.0 mi NNW 5.8 mph - N/A   Overcast
3:15 AM 23.0 °F 15.8 °F 17.6 °F 80% 29.90 in 10.0 mi NW 5.8 mph - N/A   Overcast
3:35 AM 24.8 °F 19.1 °F 17.6 °F 74% 29.90 in 10.0 mi NNW 4.6 mph - N/A   Overcast
3:55 AM 24.8 °F 16.9 °F 17.6 °F 74% 29.89 in 10.0 mi NW 6.9 mph - N/A   Overcast
4:15 AM 23.0 °F 13.9 °F 17.6 °F 80% 29.89 in 10.0 mi NW 8.1 mph - N/A   Overcast
4:35 AM 23.0 °F 15.8 °F 15.8 °F 74% 29.89 in 10.0 mi NW 5.8 mph - N/A   Overcast
4:55 AM 24.8 °F 13.4 °F 17.6 °F 74% 29.89 in 9.0 mi NW 12.7 mph - N/A   Overcast
5:15 AM 24.8 °F 14.6 °F 17.6 °F 74% 29.90 in 9.0 mi NNW 10.4 mph 16.1 mph N/A   Overcast
5:35 AM 24.8 °F 16.1 °F 19.4 °F 80% 29.90 in 5.0 mi NNW 8.1 mph - N/A   Mostly Cloudy
5:55 AM 24.8 °F 20.5 °F 19.4 °F 80% 29.90 in 4.0 mi North 3.5 mph - N/A   Overcast
6:15 AM 24.8 °F 14.0 °F 19.4 °F 80% 29.91 in 8.0 mi North 11.5 mph - N/A   Overcast
6:35 AM 23.0 °F 10.6 °F 17.6 °F 80% 29.91 in 10.0 mi North 13.8 mph - N/A   Overcast
6:55 AM 23.0 °F 11.7 °F 17.6 °F 80% 29.91 in 10.0 mi NNE 11.5 mph 20.7 mph N/A   Overcast
7:15 AM 23.0 °F 11.7 °F 17.6 °F 80% 29.92 in 10.0 mi NNE 11.5 mph - N/A   Overcast
7:35 AM 23.0 °F 14.7 °F 17.6 °F 80% 29.93 in 10.0 mi North 6.9 mph - N/A   Overcast
7:55 AM 24.8 °F 15.3 °F 17.6 °F 74% 29.93 in 10.0 mi NNE 9.2 mph - N/A   Mostly Cloudy
8:15 AM 26.6 °F 16.2 °F 19.4 °F 74% 29.93 in 10.0 mi North 11.5 mph - N/A   Overcast
8:35 AM 24.8 °F 20.5 °F 17.6 °F 74% 29.95 in 9.0 mi East 3.5 mph - N/A   Mostly Cloudy
8:55 AM 24.8 °F 16.9 °F 19.4 °F 80% 29.95 in 9.0 mi NNE 6.9 mph - N/A   Overcast
9:15 AM 26.6 °F 18.2 °F 19.4 °F 74% 29.96 in 5.0 mi NNE 8.1 mph - N/A   Overcast
9:35 AM 26.6 °F 16.8 °F 17.6 °F 69% 29.96 in 10.0 mi NNE 10.4 mph - N/A   Overcast
9:55 AM 26.6 °F 17.5 °F 17.6 °F 69% 29.97 in 10.0 mi North 9.2 mph - N/A   Overcast
10:15 AM 26.6 °F 18.2 °F 17.6 °F 69% 29.97 in 10.0 mi NNE 8.1 mph - N/A   Mostly Cloudy
10:35 AM 26.6 °F 17.5 °F 17.6 °F 69% 29.98 in 10.0 mi NNE 9.2 mph - N/A   Overcast
10:55 AM 28.4 °F 19.1 °F 17.6 °F 64% 29.98 in 10.0 mi NNE 10.4 mph - N/A   Overcast
11:15 AM 28.4 °F 17.5 °F 17.6 °F 64% 29.98 in 10.0 mi North 13.8 mph - N/A   Overcast
11:35 AM 28.4 °F 16.6 °F 17.6 °F 64% 29.98 in 10.0 mi NNE 16.1 mph - N/A   Overcast
11:55 AM 28.4 °F 17.0 °F 17.6 °F 64% 29.97 in 10.0 mi NNE 15.0 mph - N/A   Overcast
12:15 PM 28.4 °F 17.5 °F 15.8 °F 59% 29.97 in 10.0 mi North 13.8 mph - N/A   Overcast
12:35 PM 32.0 °F 21.6 °F 17.6 °F 55% 29.97 in 10.0 mi North 15.0 mph - N/A   Overcast
12:55 PM 30.2 °F 19.3 °F 17.6 °F 60% 29.97 in 10.0 mi North 15.0 mph - N/A   Overcast
1:15 PM 30.2 °F 19.3 °F 15.8 °F 55% 29.97 in 10.0 mi North 15.0 mph - N/A   Overcast
1:35 PM 30.2 °F 19.8 °F 15.8 °F 55% 29.97 in 10.0 mi North 13.8 mph - N/A   Overcast
1:55 PM 28.4 °F 17.5 °F 15.8 °F 59% 29.97 in 10.0 mi North 13.8 mph - N/A   Overcast
2:15 PM 30.2 °F 20.2 °F 15.8 °F 55% 29.97 in 10.0 mi North 12.7 mph - N/A   Overcast
2:35 PM 28.4 °F 18.0 °F 15.8 °F 59% 29.97 in 10.0 mi North 12.7 mph - N/A   Overcast
2:55 PM 26.6 °F 19.1 °F 15.8 °F 64% 29.97 in 10.0 mi North 6.9 mph - N/A   Overcast
3:15 PM 26.6 °F 17.5 °F 15.8 °F 64% 29.97 in 10.0 mi NNE 9.2 mph - N/A   Overcast
3:35 PM 28.4 °F 19.7 °F 17.6 °F 64% 29.98 in 10.0 mi NE 9.2 mph - N/A   Overcast
3:55 PM - - - N/A% 29.97 in 10.0 mi North 11.5 mph - N/A   Scattered Clouds
4:15 PM 127.4 °F - 127.4 °F 100% 29.98 in 10.0 mi North 12.7 mph - N/A   Mostly Cloudy
4:35 PM 80.6 °F - 78.8 °F 94% 29.98 in 10.0 mi NNE 10.4 mph - N/A   Mostly Cloudy
4:55 PM 59.0 °F - 55.4 °F 88% 29.99 in 10.0 mi North 8.1 mph - N/A   Mostly Cloudy
5:15 PM 95.0 °F - 95.0 °F 100% 30.00 in 10.0 mi North 8.1 mph - N/A   Overcast
5:35 PM 23.0 °F 18.4 °F 17.6 °F 80% 30.00 in 10.0 mi NE 3.5 mph - N/A   Overcast
5:55 PM 21.2 °F 16.4 °F 15.8 °F 80% 30.01 in 10.0 mi NE 3.5 mph - N/A   Overcast
6:15 PM 19.4 °F 11.5 °F 14.0 °F 80% 30.01 in 10.0 mi ENE 5.8 mph - N/A   Overcast
6:35 PM 26.6 °F 22.6 °F 23.0 °F 86% 30.02 in 10.0 mi North 3.5 mph - N/A   Overcast
6:55 PM 23.0 °F - 19.4 °F 86% 30.02 in 10.0 mi Calm Calm - N/A   Overcast
7:15 PM 19.4 °F - 15.8 °F 86% 30.02 in 10.0 mi Calm Calm - N/A   Overcast
7:35 PM 19.4 °F - 15.8 °F 86% 30.03 in 8.0 mi Calm Calm - N/A   Mostly Cloudy
7:55 PM 17.6 °F - 14.0 °F 86% 30.03 in 10.0 mi Calm Calm - N/A   Overcast
8:15 PM 17.6 °F 12.3 °F 14.0 °F 86% 30.03 in 10.0 mi SSE 3.5 mph - N/A   Overcast
8:35 PM 15.8 °F 10.2 °F 14.0 °F 93% 30.04 in 10.0 mi ESE 3.5 mph - N/A   Overcast
8:55 PM 15.8 °F - 12.2 °F 86% 30.04 in 10.0 mi Calm Calm - N/A   Overcast
9:15 PM 14.0 °F - 10.4 °F 86% 30.04 in 10.0 mi Calm Calm - N/A   Overcast
9:35 PM 12.2 °F 4.3 °F 8.6 °F 85% 30.04 in 10.0 mi WNW 4.6 mph - N/A   Overcast
9:55 PM 19.4 °F 12.8 °F 17.6 °F 93% 30.04 in 10.0 mi WSW 4.6 mph - N/A   Mostly Cloudy
10:15 PM 10.4 °F - 6.8 °F 85% 30.05 in 10.0 mi Calm Calm - N/A   Mostly Cloudy
10:35 PM 6.8 °F - 5.0 °F 92% 30.05 in 10.0 mi Calm Calm - N/A   Overcast
10:55 PM 6.8 °F -0.1 °F 1.4 °F 79% 30.06 in 10.0 mi SSE 3.5 mph - N/A   Overcast
11:15 PM 5.0 °F -2.1 °F 1.4 °F 85% 30.06 in 10.0 mi South 3.5 mph - N/A   Mostly Cloudy
11:35 PM 5.0 °F - -0.4 °F 78% 30.06 in 10.0 mi Calm Calm - N/A   Partly Cloudy
11:55 PM 1.4 °F - -0.4 °F 92% 30.07 in 10.0 mi Calm Calm - N/A   Clear